H1 CPF 2 NER 2023 7 10 9 191 01 glonass134 H2 1407501 9134 40315 2023 7 10 0 0 0 2023 7 13 23 45 0 900 1 1 0 0 0 1 H9 10 0 60135 0.00000 0 -7493231.288 -9343168.592 -22507469.069 10 0 60135 900.00000 0 -6228169.572 -11765613.740 -21752011.187 10 0 60135 1800.00000 0 -5185376.998 -14161422.554 -20573833.318 10 0 60135 2700.00000 0 -4372906.391 -16464745.959 -18996133.821 10 0 60135 3600.00000 0 -3786718.245 -18610936.983 -17049824.678 10 0 60135 4500.00000 0 -3411075.762 -20539081.427 -14772911.823 10 0 60135 5400.00000 0 -3219439.424 -22194382.403 -12209742.600 10 0 60135 6300.00000 0 -3175820.723 -23530300.924 -9410135.838 10 0 60135 7200.00000 0 -3236535.889 -24510365.241 -6428411.920 10 0 60135 8100.00000 0 -3352284.293 -25109575.704 -3322341.788 10 0 60135 9000.00000 0 -3470463.185 -25315348.774 -152034.962 10 0 60135 9900.00000 0 -3537621.149 -25127962.915 3021212.430 10 0 60135 10800.00000 0 -3501947.387 -24560489.555 6136088.261 10 0 60135 11700.00000 0 -3315692.858 -23638213.306 9132432.187 10 0 60135 12600.00000 0 -2937422.407 -22397566.360 11952379.442 10 0 60135 13500.00000 0 -2334004.148 -20884621.582 14541460.087 10 0 60135 14400.00000 0 -1482253.232 -19153206.555 16849634.173 10 0 60135 15300.00000 0 -370161.204 -17262716.034 18832244.351 10 0 60135 16200.00000 0 1002340.996 -15275712.314 20450869.019 10 0 60135 17100.00000 0 2623119.557 -13255411.538 21674060.680 10 0 60135 18000.00000 0 4468086.774 -11263158.621 22477956.003 10 0 60135 18900.00000 0 6501954.714 -9355994.065 22846746.043 10 0 60135 19800.00000 0 8679465.269 -7584412.441 22772997.255 10 0 60135 20700.00000 0 10947048.684 -5990404.923 22257816.158 10 0 60135 21600.00000 0 13244844.860 -4605867.043 21310853.019 10 0 60135 22500.00000 0 15509006.272 -3451438.301 19950142.538 10 0 60135 23400.00000 0 17674189.001 -2535822.927 18201782.357 10 0 60135 24300.00000 0 19676129.658 -1855621.369 16099453.212 10 0 60135 25200.00000 0 21454201.401 -1395680.978 13683787.690 10 0 60135 26100.00000 0 22953841.919 -1129952.549 11001597.809 10 0 60135 27000.00000 0 24128750.695 -1022817.692 8104974.879 10 0 60135 27900.00000 0 24942761.601 -1030831.648 5050278.237 10 0 60135 28800.00000 0 25371309.977 -1104807.775 1897032.423 10 0 60135 29700.00000 0 25402430.181 -1192154.627 -1293245.102 10 0 60135 30600.00000 0 25037239.476 -1239364.956 -4458261.525 10 0 60135 31500.00000 0 24289886.217 -1194548.851 -7536185.841 10 0 60135 32400.00000 0 23186963.583 -1009900.830 -10466879.194 10 0 60135 33300.00000 0 21766413.406 -643993.313 -13193091.961 10 0 60135 34200.00000 0 20075966.967 -63796.422 -15661601.832 10 0 60135 35100.00000 0 18171189.752 753663.989 -17824268.677 10 0 60135 36000.00000 0 16113214.265 1820082.203 -19638984.069 10 0 60135 36900.00000 0 13966258.219 3135135.433 -21070496.032 10 0 60135 37800.00000 0 11795034.203 4686265.247 -22091092.651 10 0 60135 38700.00000 0 9662160.950 6448986.759 -22681131.685 10 0 60135 39600.00000 0 7625685.526 8387711.967 -22829406.782 10 0 60135 40500.00000 0 5736820.175 10457051.692 -22533344.644 10 0 60135 41400.00000 0 4037987.619 12603540.432 -21799031.039 10 0 60135 42300.00000 0 2561254.811 14767710.814 -20641067.039 10 0 60135 43200.00000 0 1327218.156 16886430.051 -19082260.200 10 0 60135 44100.00000 0 344383.732 18895400.394 -17153158.433 10 0 60135 45000.00000 0 -390934.919 20731719.138 -14891437.173 10 0 60135 45900.00000 0 -894200.582 22336391.959 -12341152.994 10 0 60135 46800.00000 0 -1191738.449 23656695.744 -9551879.015 10 0 60135 47700.00000 0 -1319365.622 24648293.825 -6577739.422 10 0 60135 48600.00000 0 -1320623.797 25277017.146 -3476361.953 10 0 60135 49500.00000 0 -1244690.884 25520238.983 -307768.401 10 0 60135 50400.00000 0 -1144060.148 25367787.739 2866775.906 10 0 60135 51300.00000 0 -1072084.580 24822361.408 5985932.307 10 0 60135 52200.00000 0 -1080489.307 23899427.723 8989457.242 10 0 60135 53100.00000 0 -1216955.867 22626614.897 11819347.687 10 0 60135 54000.00000 0 -1522878.893 21042618.564 14420943.051 10 0 60135 54900.00000 0 -2031388.581 19195669.912 16743963.895 10 0 60135 55800.00000 0 -2765721.399 17141627.760 18743468.973 10 0 60135 56700.00000 0 -3738007.330 14941772.330 20380713.592 10 0 60135 57600.00000 0 -4948525.131 12660390.474 21623893.897 10 0 60135 58500.00000 0 -6385458.139 10362250.622 22448763.448 10 0 60135 59400.00000 0 -8025162.994 8110070.227 22839110.503 10 0 60135 60300.00000 0 -9832942.790 5962079.118 22787086.473 10 0 60135 61200.00000 0 -11764295.546 3969778.600 22293378.345 10 0 60135 62100.00000 0 -13766589.208 2175988.656 21367220.278 10 0 60135 63000.00000 0 -15781096.526 613264.306 20026242.272 10 0 60135 63900.00000 0 -17745307.574 -697252.487 18296156.546 10 0 60135 64800.00000 0 -19595425.452 -1746496.543 16210285.327 10 0 60135 65700.00000 0 -21268941.999 -2537629.875 13808936.845 10 0 60135 66600.00000 0 -22707185.933 -3085671.177 11138639.585 10 0 60135 67500.00000 0 -23857735.889 -3416618.818 8251248.102 10 0 60135 68400.00000 0 -24676595.513 -3566103.518 5202936.815 10 0 60135 69300.00000 0 -25130036.995 -3577627.398 2053101.231 10 0 60135 70200.00000 0 -25196032.998 -3500464.375 -1136811.440 10 0 60135 71100.00000 0 -24865214.174 -3387312.092 -4304518.201 10 0 60135 72000.00000 0 -24141309.717 -3291796.845 -7388137.058 10 0 60135 72900.00000 0 -23041050.823 -3265939.839 -10327418.308 10 0 60135 73800.00000 0 -21593540.243 -3357695.028 -13064943.851 10 0 60135 74700.00000 0 -19839114.526 -3608665.818 -15547268.736 10 0 60135 75600.00000 0 -17827747.576 -4052100.012 -17725980.617 10 0 60135 76500.00000 0 -15617064.030 -4711250.075 -19558654.908 10 0 60135 77400.00000 0 -13270047.692 -5598169.588 -21009686.022 10 0 60135 78300.00000 0 -10852542.944 -6712997.570 -22050978.243 10 0 60135 79200.00000 0 -8430655.427 -8043760.952 -22662483.126 10 0 60135 80100.00000 0 -6068161.884 -9566703.026 -22832573.929 10 0 60135 81000.00000 0 -3824037.858 -11247123.086 -22558251.190 10 0 60135 81900.00000 0 -1750206.040 -13040690.778 -21845177.176 10 0 60135 82800.00000 0 110401.992 -14895178.712 -20707540.442 10 0 60135 83700.00000 0 1725391.862 -16752539.606 -19167754.997 10 0 60135 84600.00000 0 3073998.590 -18551240.173 -17256001.714 10 0 60135 85500.00000 0 4147682.509 -20228753.674 -15009622.447 10 0 60136 0.00000 0 4950207.467 -21724106.897 -12472380.117 10 0 60136 900.00000 0 5497201.859 -22980376.474 -9693598.586 10 0 60136 1800.00000 0 5815223.092 -23947029.273 -6727203.069 10 0 60136 2700.00000 0 5940368.769 -24582013.184 -3630675.268 10 0 60136 3600.00000 0 5916493.811 -24853510.508 -463946.621 10 0 60136 4500.00000 0 5793110.167 -24741283.236 2711750.753 10 0 60136 5400.00000 0 5623057.860 -24237555.424 5835053.831 10 0 60136 6300.00000 0 5460045.168 -23347397.084 8845637.755 10 0 60136 7200.00000 0 5356160.750 -22088594.351 11685362.920 10 0 60136 8100.00000 0 5359461.327 -20491011.553 14299379.506 10 0 60136 9000.00000 0 5511735.265 -18595471.348 16637169.755 10 0 60136 9900.00000 0 5846535.056 -16452198.479 18653509.438 10 0 60136 10800.00000 0 6387560.785 -14118890.304 20309331.423 10 0 60136 11700.00000 0 7147462.404 -11658492.170 21572475.882 10 0 60136 12600.00000 0 8127111.768 -9136767.760 22418313.401 10 0 60136 13500.00000 0 9315376.430 -6619762.882 22830229.329 10 0 60136 14400.00000 0 10689406.843 -4171265.729 22799959.704 10 0 60136 15300.00000 0 12215427.763 -1850367.242 22327771.442 10 0 60136 16200.00000 0 13850003.840 290778.460 21422481.901 10 0 60136 17100.00000 0 15541729.692 2208901.148 20101315.516 10 0 60136 18000.00000 0 17233276.670 3871188.042 18389598.073 10 0 60136 18900.00000 0 18863713.083 5256417.720 16320292.134 10 0 60136 19800.00000 0 20371002.331 6355606.019 13933380.236 10 0 60136 20700.00000 0 21694574.871 7172135.646 11275105.809 10 0 60136 21600.00000 0 22777865.771 7721362.863 8397084.900 10 0 60136 22500.00000 0 23570709.964 8029716.813 5355305.038 10 0 60136 23400.00000 0 24031492.415 8133328.966 2209030.492 10 0 60136 24300.00000 0 24128960.141 8076250.722 -980364.183 10 0 60136 25200.00000 0 23843616.994 7908335.472 -4150608.345 10 0 60136 26100.00000 0 23168639.833 7682876.384 -7239771.617 10 0 60136 27000.00000 0 22110275.266 7454102.285 -10187496.022 10 0 60136 27900.00000 0 20687698.773 7274640.394 -12936197.456 10 0 60136 28800.00000 0 18932341.415 7193056.294 -15432210.627 10 0 60136 29700.00000 0 16886712.600 7251578.064 -17626853.074 10 0 60136 30600.00000 0 14602769.193 7484103.259 -19477385.936 10 0 60136 31500.00000 0 12139900.844 7914574.792 -20947851.700 10 0 60136 32400.00000 0 9562617.604 8555795.388 -22009772.313 10 0 60136 33300.00000 0 6938038.231 9408730.934 -22642694.403 10 0 60136 34200.00000 0 4333285.537 10462331.679 -22834571.863 10 0 60136 35100.00000 0 1812898.266 11693877.824 -22581979.807 10 0 60136 36000.00000 0 -563632.514 13069833.638 -21890157.420 10 0 60136 36900.00000 0 -2744100.576 14547172.649 -20772880.752 10 0 60136 37800.00000 0 -4685503.676 16075116.821 -19252169.858 10 0 60136 38700.00000 0 -6355567.074 17597215.524 -17357837.726 10 0 60136 39600.00000 0 -7733810.879 19053676.277 -15126891.348 10 0 60136 40500.00000 0 -8812120.069 20383849.218 -12602797.821 10 0 60136 41400.00000 0 -9594796.852 21528761.406 -9834630.619 10 0 60136 42300.00000 0 -10098096.560 22433595.421 -6876113.200 10 0 60136 43200.00000 0 -10349269.526 23050009.574 -3784578.627 10 0 60136 44100.00000 0 -10385151.527 23338203.928 -619865.182 10 0 60136 45000.00000 0 -10250363.715 23268647.180 2556831.150 10 0 60136 45900.00000 0 -9995198.601 22823393.573 5684125.992 10 0 60136 46800.00000 0 -9673281.193 21996936.002 8701616.214 10 0 60136 47700.00000 0 -9339103.190 20796560.477 11551028.629 10 0 60136 48600.00000 0 -9045533.011 19242187.419 14177327.115 10 0 60136 49500.00000 0 -8841405.166 17365706.052 16529758.406 10 0 60136 50400.00000 0 -8769289.039 15209828.617 18562817.937 10 0 60136 51300.00000 0 -8863529.810 12826510.490 20237118.592 10 0 60136 52200.00000 0 -9148643.191 10274999.702 21520146.775 10 0 60136 53100.00000 0 -9638131.378 7619594.439 22386892.016 10 0 60136 54000.00000 0 -10333770.634 4927198.929 22820338.317 10 0 60136 54900.00000 0 -11225401.900 2264776.568 22811807.493 10 0 60136 55800.00000 0 -12291235.391 -303196.316 22361147.077 10 0 60136 56700.00000 0 -13498659.111 -2717172.152 21476757.764 10 0 60136 57600.00000 0 -14805520.375 -4924769.034 20175458.004 10 0 60136 58500.00000 0 -16161829.552 -6882710.268 18482186.127 10 0 60136 59400.00000 0 -17511817.158 -8558385.596 16429543.394 10 0 60136 60300.00000 0 -18796259.971 -9930968.202 14057184.461 10 0 60136 61200.00000 0 -19954979.534 -10992039.634 11411064.990 10 0 60136 62100.00000 0 -20929408.212 -11745695.179 8542559.390 10 0 60136 63000.00000 0 -21665113.918 -12208124.087 5507464.821 10 0 60136 63900.00000 0 -22114175.487 -12406681.514 2364910.614 10 0 60136 64800.00000 0 -22237306.113 -12378491.052 -823805.166 10 0 60136 65700.00000 0 -22005632.528 -12168637.389 -3996428.113 10 0 60136 66600.00000 0 -21402051.962 -11828026.694 -7090983.299 10 0 60136 67500.00000 0 -20422107.059 -11411007.240 -10047008.204 10 0 60136 68400.00000 0 -19074339.710 -10972853.407 -12806756.250 10 0 60136 69300.00000 0 -17380107.607 -10567222.367 -15316345.052 10 0 60136 70200.00000 0 -15372870.620 -10243693.825 -17526824.906 10 0 60136 71100.00000 0 -13096977.259 -10045499.401 -19395145.059 10 0 60136 72000.00000 0 -10606003.054 -10007539.613 -20884997.880 10 0 60136 72900.00000 0 -7960711.813 -10154773.471 -21967524.139 10 0 60136 73800.00000 0 -5226726.551 -10501049.140 -22621865.979 10 0 60136 74700.00000 0 -2472008.820 -11048424.670 -22835557.691 10 0 60136 75600.00000 0 235747.401 -11787006.443 -22604748.071 10 0 60136 76500.00000 0 2831698.202 -12695310.659 -21934251.742 10 0 60136 77400.00000 0 5256301.384 -13741130.882 -20837430.289 10 0 60136 78300.00000 0 7457536.272 -14882873.358 -19335907.457 10 0 60136 79200.00000 0 9392801.230 -16071302.326 -17459125.677 10 0 60136 80100.00000 0 11030412.348 -17251620.679 -15243754.165 10 0 60136 81000.00000 0 12350643.953 -18365797.740 -12732961.338 10 0 60136 81900.00000 0 13346270.880 -19355046.117 -9975566.606 10 0 60136 82800.00000 0 14022593.221 -20162343.882 -7025088.586 10 0 60136 83700.00000 0 14396945.687 -20734896.931 -3938708.398 10 0 60136 84600.00000 0 14497714.880 -21026439.317 -776167.924 10 0 60136 85500.00000 0 14362907.726 -20999276.365 2401376.100 10 0 60137 0.00000 0 14038332.613 -20625986.345 5532520.567 10 0 60137 900.00000 0 13575469.971 -19890710.347 8556787.270 10 0 60137 1800.00000 0 13029122.125 -18789977.819 11415771.455 10 0 60137 2700.00000 0 12454939.868 -17333032.964 14054252.620 10 0 60137 3600.00000 0 11906928.897 -15541648.543 16421243.519 10 0 60137 4500.00000 0 11435039.367 -13449433.819 18470960.384 10 0 60137 5400.00000 0 11082938.439 -11100663.932 20163696.846 10 0 60137 6300.00000 0 10886058.271 -8548677.223 21466585.889 10 0 60137 7200.00000 0 10870000.750 -5853904.563 22354235.988 10 0 60137 8100.00000 0 11049365.931 -3081609.652 22809229.464 10 0 60137 9000.00000 0 11427054.102 -299431.158 22822473.294 10 0 60137 9900.00000 0 11994072.208 2425173.933 22393394.751 10 0 60137 10800.00000 0 12729854.871 5027481.937 21529976.791 10 0 60137 11700.00000 0 13603089.077 7447944.749 20248630.614 10 0 60137 12600.00000 0 14573010.597 9634422.148 18573905.677 10 0 60137 13500.00000 0 15591120.294 11544111.397 16538040.402 10 0 60137 14400.00000 0 16603250.313 13145093.239 14180359.881 10 0 60137 15300.00000 0 17551894.668 14417428.593 11546530.196 10 0 60137 16200.00000 0 18378706.692 15353758.778 8687682.170 10 0 60137 17100.00000 0 19027057.662 15959382.688 5659420.511 10 0 60137 18000.00000 0 19444547.339 16251806.510 2520737.393 10 0 60137 18900.00000 0 19585358.314 16259784.318 -667147.916 10 0 60137 19800.00000 0 19412352.032 16021889.965 -3841999.594 10 0 60137 20700.00000 0 18898814.993 15584681.365 -6941800.505 10 0 60137 21600.00000 0 18029778.488 15000536.225 -9905985.832 10 0 60137 22500.00000 0 16802853.622 14325252.889 -12676648.634 10 0 60137 23400.00000 0 15228544.441 13615520.291 -15199691.375 10 0 60137 24300.00000 0 13330024.812 12926366.740 -17425898.855 10 0 60137 25200.00000 0 11142388.006 12308697.873 -19311910.007 10 0 60137 26100.00000 0 8711400.860 11807029.967 -20821068.494 10 0 60137 27000.00000 0 6091815.660 11457515.763 -21924135.180 10 0 60137 27900.00000 0 3345311.640 11286346.758 -22599848.864 10 0 60137 28800.00000 0 538153.467 11308599.215 -22835325.203 10 0 60137 29700.00000 0 -2261334.435 11527571.534 -22626287.439 10 0 60137 30600.00000 0 -4985371.767 11934639.392 -21977126.114 10 0 60137 31500.00000 0 -7569295.875 12509632.715 -20900788.496 10 0 60137 32400.00000 0 -9953998.452 13221716.498 -19418501.773 10 0 60137 33300.00000 0 -12088125.412 14030736.282 -17559337.171 10 0 60137 34200.00000 0 -13929950.425 14888969.875 -15359625.089 10 0 60137 35100.00000 0 -15448846.764 15743210.226 -12862233.863 10 0 60137 36000.00000 0 -16626299.198 16537091.018 -10115727.124 10 0 60137 36900.00000 0 -17456416.878 17213556.891 -7173416.690 10 0 60137 37800.00000 0 -17945929.000 17717374.737 -4092329.569 10 0 60137 38700.00000 0 -18113666.263 17997581.233 -932108.908 10 0 60137 39600.00000 0 -17989552.182 18009764.852 2246130.279 10 0 60137 40500.00000 0 -17613148.236 17718087.762 5380969.309 10 0 60137 41400.00000 0 -17031814.826 17096963.907 8411856.471 10 0 60137 42300.00000 0 -16298565.431 16132323.902 11280258.796 10 0 60137 43200.00000 0 -15469703.535 14822414.257 13930774.237 10 0 60137 44100.00000 0 -14602340.480 13178097.451 16312184.405 10 0 60137 45000.00000 0 -13751897.007 11222639.619 18378429.112 10 0 60137 45900.00000 0 -12969691.758 8990993.274 20089485.390 10 0 60137 46800.00000 0 -12300716.430 6528602.877 21412135.286 10 0 60137 47700.00000 0 -11781689.728 3889780.336 22320608.422 10 0 60137 48600.00000 0 -11439471.109 1135714.992 22797087.337 10 0 60137 49500.00000 0 -11289900.828 -1667802.427 22832065.671 10 0 60137 50400.00000 0 -11337115.689 -4452850.347 22424551.508 10 0 60137 51300.00000 0 -11573370.582 -7151941.531 21582110.642 10 0 60137 52200.00000 0 -11979375.301 -9700578.458 20320747.075 10 0 60137 53100.00000 0 -12525134.752 -12039694.037 18664620.901 10 0 60137 54000.00000 0 -13171259.644 -14117876.701 16645606.651 10 0 60137 54900.00000 0 -13870694.662 -15893286.944 14302698.274 10 0 60137 55800.00000 0 -14570792.983 -17335184.416 11681270.203 10 0 60137 56700.00000 0 -15215650.597 -18425000.376 8832207.163 10 0 60137 57600.00000 0 -15748601.924 -19156909.010 5810918.536 10 0 60137 58500.00000 0 -16114770.404 -19537872.152 2676256.186 10 0 60137 59400.00000 0 -16263564.477 -19587154.409 -510642.800 10 0 60137 60300.00000 0 -16151010.908 -19335328.573 -3687564.721 10 0 60137 61200.00000 0 -15741823.900 -18822813.483 -6792453.859 10 0 60137 62100.00000 0 -15011119.427 -18098007.034 -9764646.766 10 0 60137 63000.00000 0 -13945699.531 -17215094.890 -12546079.764 10 0 60137 63900.00000 0 -12544849.900 -16231629.724 -15082443.653 10 0 60137 64800.00000 0 -10820615.411 -15205985.795 -17324261.008 10 0 60137 65700.00000 0 -8797540.995 -14194798.870 -19227863.362 10 0 60137 66600.00000 0 -6511888.535 -13250501.822 -20756248.139 10 0 60137 67500.00000 0 -4010363.106 -12419061.500 -21879798.214 10 0 60137 68400.00000 0 -1348402.807 -11738013.213 -22576850.347 10 0 60137 69300.00000 0 1411895.082 -11234875.675 -22834102.239 10 0 60137 70200.00000 0 4204123.897 -10926012.385 -22646851.628 10 0 60137 71100.00000 0 6960094.446 -10815985.798 -22019064.459 10 0 60137 72000.00000 0 9612433.224 -10897429.377 -20963272.651 10 0 60137 72900.00000 0 12097143.984 -11151440.448 -19500305.343 10 0 60137 73800.00000 0 14356026.959 -11548474.808 -17658860.660 10 0 60137 74700.00000 0 16338856.579 -12049703.079 -15474927.894 10 0 60137 75600.00000 0 18005229.178 -12608769.725 -12991072.654 10 0 60137 76500.00000 0 19326006.400 -13173879.236 -10255599.810 10 0 60137 77400.00000 0 20284297.012 -13690120.788 -7321611.102 10 0 60137 78300.00000 0 20875939.174 -14101933.287 -4245975.916 10 0 60137 79200.00000 0 21109465.856 -14355607.360 -1088235.012 10 0 60137 80100.00000 0 21005557.320 -14401719.788 2090541.999 10 0 60137 81000.00000 0 20596005.514 -14197399.042 5228924.163 10 0 60137 81900.00000 0 19922234.989 -13708327.838 8266290.197 10 0 60137 82800.00000 0 19033442.834 -12910399.639 11143981.673 10 0 60137 83700.00000 0 17984435.371 -11790960.297 13806417.638 10 0 60137 84600.00000 0 16833251.436 -10349582.994 16202150.741 10 0 60137 85500.00000 0 15638670.493 -8598343.603 18284846.073 10 0 60138 0.00000 0 14457708.465 -6561583.987 20014165.158 10 0 60138 900.00000 0 13343203.829 -4275170.095 21356540.179 10 0 60138 1800.00000 0 12341595.100 -1785276.020 22285822.068 10 0 60138 2700.00000 0 11490979.495 853261.940 22783793.507 10 0 60138 3600.00000 0 10819535.032 3578953.443 22840534.346 10 0 60138 4500.00000 0 10344371.562 6325945.288 22454632.684 10 0 60138 5400.00000 0 10070859.709 9026503.302 21633236.036 10 0 60138 6300.00000 0 9992467.171 11613584.353 20391939.822 10 0 60138 7200.00000 0 10091111.050 14023393.309 18754513.140 10 0 60138 8100.00000 0 10338013.440 16197819.595 16752464.790 10 0 60138 9000.00000 0 10695026.259 18086651.923 14424455.558 10 0 60138 9900.00000 0 11116371.224 19649478.125 11815566.048 10 0 60138 10800.00000 0 11550722.662 20857189.380 8976432.570 10 0 60138 11700.00000 0 11943545.586 21693024.193 5962266.751 10 0 60138 12600.00000 0 12239589.633 22153106.543 2831777.620 10 0 60138 13500.00000 0 12385431.982 22246454.037 -353982.468 10 0 60138 14400.00000 0 12331959.412 21994454.669 -3532824.469 10 0 60138 15300.00000 0 12036681.693 21429833.797 -6642656.530 10 0 60138 16200.00000 0 11465775.359 20595155.335 -9622718.861 10 0 60138 17100.00000 0 10595768.360 19540921.513 -12414793.140 10 0 60138 18000.00000 0 9414791.653 18323353.271 -14964360.369 10 0 60138 18900.00000 0 7923342.717 17001947.185 -17221682.526 10 0 60138 19800.00000 0 6134527.280 15636914.423 -19142785.170 10 0 60138 20700.00000 0 4073768.373 14286612.007 -20690320.729 10 0 60138 21600.00000 0 1777994.894 13005076.458 -21834295.176 10 0 60138 22500.00000 0 -705655.702 11839764.835 -22552644.171 10 0 60138 23400.00000 0 -3321565.325 10829598.583 -22831648.229 10 0 60138 24300.00000 0 -6007720.424 10003391.896 -22666180.151 10 0 60138 25200.00000 0 -8698066.395 9378729.265 -22059781.587 10 0 60138 26100.00000 0 -11325032.297 8961337.285 -21024569.080 10 0 60138 27000.00000 0 -13822120.513 8744974.528 -19580973.343 10 0 60138 27900.00000 0 -16126453.911 8711841.242 -17757318.642 10 0 60138 28800.00000 0 -18181175.459 8833488.830 -15589252.063 10 0 60138 29700.00000 0 -19937602.058 9072188.268 -13119035.084 10 0 60138 30600.00000 0 -21357045.014 9382697.775 -10394712.163 10 0 60138 31500.00000 0 -22412223.812 9714353.791 -7469173.117 10 0 60138 32400.00000 0 -23088216.939 10013396.374 -4399127.712 10 0 60138 33300.00000 0 -23382912.748 10225430.863 -1244012.200 10 0 60138 34200.00000 0 -23306943.956 10297922.514 1935151.463 10 0 60138 35100.00000 0 -22883110.568 10182619.848 5076922.423 10 0 60138 36000.00000 0 -22145316.761 9837805.797 8120612.327 10 0 60138 36900.00000 0 -21137066.996 9230282.999 11007439.905 10 0 60138 37800.00000 0 -19909584.317 8337010.728 13681647.993 10 0 60138 38700.00000 0 -18519628.944 7146325.202 16091563.007 10 0 60138 39600.00000 0 -17027107.217 5658692.019 18190578.006 10 0 60138 40500.00000 0 -15492569.279 3886958.411 19938041.860 10 0 60138 41400.00000 0 -13974698.262 1856093.188 21300038.636 10 0 60138 42300.00000 0 -12527894.151 -397576.987 22250043.030 10 0 60138 43200.00000 0 -11200051.702 -2827606.042 22769439.640 10 0 60138 44100.00000 0 -10030624.133 -5379093.350 22847895.940 10 0 60138 45000.00000 0 -9049053.016 -7990709.094 22483581.041 10 0 60138 45900.00000 0 -8273630.063 -10596999.185 21683224.765 10 0 60138 46800.00000 0 -7710839.231 -13130876.796 20462014.079 10 0 60138 47700.00000 0 -7355207.923 -15526199.017 18843326.768 10 0 60138 48600.00000 0 -7189675.173 -17720322.834 16858305.135 10 0 60138 49500.00000 0 -7186463.063 -19656534.403 14545275.594 10 0 60138 50400.00000 0 -7308416.303 -21286249.836 11949023.304 10 0 60138 51300.00000 0 -7510754.705 -22570894.409 9119934.168 10 0 60138 52200.00000 0 -7743165.118 -23483379.784 6113019.744 10 0 60138 53100.00000 0 -7952144.209 -24009115.334 2986843.648 10 0 60138 54000.00000 0 -8083491.865 -24146509.139 -197629.310 10 0 60138 54900.00000 0 -8084847.805 -23906935.992 -3378237.741 10 0 60138 55800.00000 0 -7908161.418 -23314172.716 -6492856.813 10 0 60138 56700.00000 0 -7511987.268 -22403324.332 -9480633.679 10 0 60138 57600.00000 0 -6863506.009 -21219286.903 -12283198.711 10 0 60138 58500.00000 0 -5940182.254 -19814813.141 -14845826.465 10 0 60138 59400.00000 0 -4730986.820 -18248264.236 -17118521.569 10 0 60138 60300.00000 0 -3237129.854 -16581144.827 -19057006.658 10 0 60138 61200.00000 0 -1472272.777 -14875527.207 -20623591.902 10 0 60138 62100.00000 0 537790.334 -13191475.101 -21787908.706 10 0 60138 63000.00000 0 2755968.306 -11584576.759 -22527493.486 10 0 60138 63900.00000 0 5135189.621 -10103691.701 -22828210.907 10 0 60138 64800.00000 0 7620144.223 -8789005.463 -22684509.647 10 0 60138 65700.00000 0 10149376.515 -7670472.881 -22099507.362 10 0 60138 66600.00000 0 12657641.227 -6766713.309 -21084905.043 10 0 60138 67500.00000 0 15078423.335 -6084401.498 -19660734.336 10 0 60138 68400.00000 0 17346516.960 -5618176.741 -17854944.557 10 0 60138 69300.00000 0 19400556.263 -5351070.894 -15702839.036 10 0 60138 70200.00000 0 21185394.012 -5255434.257 -13246373.108 10 0 60138 71100.00000 0 22654230.370 -5294317.681 -10533328.336 10 0 60138 72000.00000 0 23770405.198 -5423250.601 -7616379.693 10 0 60138 72900.00000 0 24508781.493 -5592338.614 -4552074.018 10 0 60138 73800.00000 0 24856664.663 -5748591.521 -1399739.449 10 0 60138 74700.00000 0 24814221.582 -5838383.602 1779653.480 10 0 60138 75600.00000 0 24394383.884 -5809942.942 4924657.828 10 0 60138 76500.00000 0 23622241.112 -5615765.823 7974521.867 10 0 60138 77400.00000 0 22533949.942 -5214855.577 10870344.953 10 0 60138 78300.00000 0 21175205.333 -4574692.735 13556196.843 10 0 60138 79200.00000 0 19599337.003 -3672854.411 15980180.458 10 0 60138 80100.00000 0 17865109.677 -2498215.192 18095419.120 10 0 60138 81000.00000 0 16034317.388 -1051678.838 19860950.749 10 0 60138 81900.00000 0 14169270.319 653590.998 21242513.005 10 0 60138 82800.00000 0 12330277.063 2592452.526 22213205.124 10 0 60138 83700.00000 0 10573225.426 4728570.829 22754014.134 10 0 60138 84600.00000 0 8947361.093 7015676.506 22854195.207 10 0 60138 85500.00000 0 7493355.776 9399248.817 22511498.119 99